TimeEST,TemperatureF,Dew PointF,Humidity,Sea Level PressureIn,VisibilityMPH,Wind Direction,Wind SpeedMPH,Gust SpeedMPH,PrecipitationIn,Events,Conditions,WindDirDegrees,DateUTC
12:53 AM,36.0,21.9,57,29.86,10.0,SSW,3.5,-,N/A,,Overcast,210,2014-01-17 05:53:00
1:53 AM,36.0,23.0,59,29.86,10.0,South,10.4,-,0.00,Snow,Light Snow,180,2014-01-17 06:53:00
2:01 AM,33.1,27.0,78,29.84,1.8,Variable,3.5,16.1,0.00,Snow,Light Snow,0,2014-01-17 07:01:00
2:07 AM,32.0,28.9,88,29.84,1.0,Calm,Calm,-,0.01,Snow,Light Snow,0,2014-01-17 07:07:00
2:14 AM,32.0,28.9,88,29.84,1.0,Variable,3.5,-,0.02,Snow,Light Snow,0,2014-01-17 07:14:00
2:22 AM,32.0,30.0,92,29.85,1.2,WSW,4.6,-,0.02,Snow,Light Snow,250,2014-01-17 07:22:00
2:33 AM,32.0,30.0,92,29.85,1.8,WSW,3.5,-,0.03,Snow,Light Snow,240,2014-01-17 07:33:00
2:48 AM,30.2,28.4,93,29.84,2.0,Variable,5.8,-,0.04,Snow,Light Snow,0,2014-01-17 07:48:00
2:53 AM,32.0,30.0,92,29.87,2.5,Variable,4.6,-,0.04,Snow,Light Snow,0,2014-01-17 07:53:00
3:05 AM,32.0,30.0,92,29.84,5.0,SW,4.6,-,0.00,Snow,Light Snow,230,2014-01-17 08:05:00
3:14 AM,30.9,30.0,96,29.84,5.0,Variable,4.6,-,0.00,Snow,Light Snow,0,2014-01-17 08:14:00
3:53 AM,32.0,30.0,92,29.85,5.0,Calm,Calm,-,0.00,Snow,Light Snow,0,2014-01-17 08:53:00
4:08 AM,30.9,30.0,96,29.82,3.0,Variable,4.6,-,0.01,Snow,Light Snow,0,2014-01-17 09:08:00
4:51 AM,30.2,28.4,93,29.82,9.0,Variable,3.5,-,0.01,,Overcast,0,2014-01-17 09:51:00
4:53 AM,30.9,28.9,92,29.85,9.0,Variable,3.5,-,0.01,,Overcast,0,2014-01-17 09:53:00
5:24 AM,30.9,28.9,92,29.82,10.0,Calm,Calm,-,N/A,,Overcast,0,2014-01-17 10:24:00
5:53 AM,30.9,28.9,92,29.84,10.0,Calm,Calm,-,N/A,,Overcast,0,2014-01-17 10:53:00
6:35 AM,30.0,28.0,92,29.80,10.0,Variable,3.5,-,N/A,,Partly Cloudy,0,2014-01-17 11:35:00
6:53 AM,30.0,27.0,88,29.83,10.0,Calm,Calm,-,N/A,,Clear,0,2014-01-17 11:53:00
8:42 AM,32.0,28.0,85,29.81,10.0,Variable,3.5,-,N/A,,Overcast,0,2014-01-17 13:42:00
8:53 AM,32.0,27.0,82,29.83,10.0,Variable,3.5,-,N/A,,Mostly Cloudy,0,2014-01-17 13:53:00
9:09 AM,33.1,28.0,82,29.80,1.8,Variable,5.8,-,0.00,Snow,Light Snow,0,2014-01-17 14:09:00
9:18 AM,33.1,28.0,82,29.81,3.0,Variable,3.5,-,0.00,Snow,Light Snow,0,2014-01-17 14:18:00
9:51 AM,35.6,28.4,75,29.81,10.0,SSW,4.6,-,0.00,,Partly Cloudy,210,2014-01-17 14:51:00
9:53 AM,35.1,28.9,78,29.83,10.0,Variable,4.6,-,0.00,,Partly Cloudy,0,2014-01-17 14:53:00
10:35 AM,37.0,28.9,73,29.83,10.0,Variable,4.6,18.4,N/A,,Overcast,0,2014-01-17 15:35:00
10:53 AM,37.0,28.9,73,29.85,10.0,Variable,4.6,19.6,N/A,,Overcast,0,2014-01-17 15:53:00
11:51 AM,35.6,30.2,81,29.83,1.5,WSW,10.4,-,0.00,Snow,Light Snow,250,2014-01-17 16:51:00
11:53 AM,34.0,30.0,85,29.85,1.0,SW,5.8,-,0.00,Snow,Light Snow,230,2014-01-17 16:53:00
12:01 PM,33.1,30.0,89,29.83,0.5,SW,9.2,-,0.01,Fog-Snow,Snow,230,2014-01-17 17:01:00
12:08 PM,33.1,30.9,92,29.83,0.5,Variable,3.5,-,0.01,Fog-Snow,Snow,0,2014-01-17 17:08:00
12:17 PM,33.1,30.9,92,29.82,0.8,Variable,5.8,-,0.02,Snow,Light Snow,0,2014-01-17 17:17:00
12:29 PM,32.0,30.0,92,29.82,1.0,WSW,8.1,-,0.02,Snow,Light Snow,250,2014-01-17 17:29:00
12:36 PM,32.0,30.9,96,29.81,0.8,West,8.1,-,0.03,Snow,Light Snow,260,2014-01-17 17:36:00
12:53 PM,32.0,30.0,92,29.83,0.8,WSW,8.1,-,0.04,Snow,Light Snow,240,2014-01-17 17:53:00
1:49 PM,30.2,28.4,93,29.81,0.5,West,8.1,-,0.04,Fog-Snow,Snow,280,2014-01-17 18:49:00
1:53 PM,30.0,28.0,92,29.83,0.5,WNW,17.3,24.2,0.04,Fog-Snow,Snow,290,2014-01-17 18:53:00
2:40 PM,28.0,25.0,88,29.85,0.5,West,11.5,24.2,0.02,Fog-Snow,Snow,260,2014-01-17 19:40:00
2:53 PM,27.0,23.0,85,29.90,1.0,West,9.2,24.2,0.02,Snow,Light Snow,270,2014-01-17 19:53:00
2:57 PM,27.0,23.0,85,29.87,2.0,WSW,9.2,20.7,0.00,Snow,Light Snow,250,2014-01-17 19:57:00
3:05 PM,27.0,23.0,85,29.88,3.0,Variable,5.8,17.3,0.00,Snow,Light Snow,0,2014-01-17 20:05:00
3:13 PM,27.0,23.0,85,29.88,2.5,Variable,6.9,-,0.00,Snow,Light Snow,0,2014-01-17 20:13:00
3:23 PM,27.0,23.0,85,29.89,5.0,Variable,6.9,17.3,0.00,Snow,Light Snow,0,2014-01-17 20:23:00
3:53 PM,26.1,21.0,81,29.94,8.0,WSW,8.1,19.6,0.00,Snow,Light Snow,250,2014-01-17 20:53:00
4:13 PM,26.1,21.0,81,29.92,10.0,WSW,10.4,23.0,0.00,,Overcast,250,2014-01-17 21:13:00
4:53 PM,24.1,18.0,77,29.98,10.0,West,8.1,19.6,0.00,,Overcast,280,2014-01-17 21:53:00
5:44 PM,21.9,17.1,82,29.96,2.0,West,11.5,-,0.00,Snow,Light Snow,280,2014-01-17 22:44:00
5:53 PM,21.9,16.0,78,30.01,5.0,West,11.5,18.4,0.00,Snow,Light Snow,260,2014-01-17 22:53:00
6:51 PM,21.2,15.8,80,30.00,5.0,West,8.1,-,0.00,Snow,Light Snow,270,2014-01-17 23:51:00
6:53 PM,21.0,15.1,78,30.05,4.0,WSW,6.9,-,0.00,Snow,Light Snow,250,2014-01-17 23:53:00
7:05 PM,21.0,15.1,78,30.00,8.0,Variable,5.8,-,0.00,Snow,Light Snow,0,2014-01-18 00:05:00
7:53 PM,19.9,12.9,74,30.07,10.0,Variable,4.6,-,0.00,,Overcast,0,2014-01-18 00:53:00
8:53 PM,19.9,12.9,74,30.08,6.0,West,5.8,-,0.00,Snow,Light Snow,280,2014-01-18 01:53:00
9:02 PM,19.9,14.0,78,30.04,5.0,West,6.9,-,0.00,Snow,Light Snow,270,2014-01-18 02:02:00
9:32 PM,19.0,10.9,71,30.04,8.0,West,9.2,-,0.00,Snow,Light Snow,270,2014-01-18 02:32:00
9:53 PM,19.0,9.0,65,30.08,10.0,West,6.9,18.4,0.00,,Overcast,270,2014-01-18 02:53:00
10:53 PM,18.0,8.1,65,30.09,8.0,Variable,6.9,-,0.00,Snow,Light Snow,0,2014-01-18 03:53:00
11:53 PM,18.0,8.1,65,30.07,10.0,Variable,3.5,-,0.00,,Overcast,0,2014-01-18 04:53:00